Orbital Elements at Epoch 2459200.5 (2020-Dec-17.0) TDB
Reference: JPL 14 (heliocentric ecliptic J2000)
Element | Value | Uncertainty (1-sigma) | Units |
e | .1283224320435317 | 4.6954e-08 | |
a | 2.349631512638366 | 1.2287e-08 | au |
q | 2.048121082530488 | 1.1003e-07 | au |
i | 6.476790103506951 | 6.3776e-06 | deg |
node | 8.000659040444503 | 3.771e-05 | deg |
peri | 313.6593337225816 | 4.5079e-05 | deg |
M | 101.9950198358599 | 2.7622e-05 | deg |
tp | 2458827.787009258545 (2019-Dec-10.28700926) | 9.9532e-05 | TDB |
period | 1315.521844918054 3.60 | 1.0319e-05 2.825e-08 | d yr |
n | .2736556609764431 | 2.1466e-09 | deg/d |
Q | 2.651141942746243 | 1.3864e-08 | au |
|
| | Orbit Determination Parameters
Additional Information
|